Weather in Polovinnoye

Russia / Novosibirsk Oblast     53°45′17″N   79°14′47″E
temp.,
°C
wind,
m/s
gust,
m/s
humid.,
%
clouds,
%
prec.,
mm/h
press.,
hPa
HPBL,
m
2 december, thu
thu201:00−14s35955 0.0 102650
04:00−13s4894100 0.0 102579
07:00−11s4992100 0.0 1023101
10:00−11s49906 0.0 1022117
13:00−7s512835 0.0 1021187
16:00−4s5138099 0.0 1019222
19:00−5sse61482100 0.0 1017196
22:00−2s71878100 0.0 1015274
3 december, fri
fri301:00−1s92171100 0.0 1013364
04:00−1s92071100 0.0 1011396
07:00−1ssw71578100 0.0 1010330
10:00−1ssw71494100 1.3 1010396
13:000ssw612100100 3.8 1010454
16:000sw4999100 3.9 1011362
19:000w51098100 4.6 1013544
22:00−1w61193100 0.2 1016467
4 december, sat
sat401:00−6sw51389100 0.2 1019265
04:00−5sw7159262 0.0 1021397
07:00−6sw71491100 0.0 1023420
10:00−6sw7139399 0.0 1025435
13:00−6wsw6129383 0.0 1027402
16:00−7sw599570 0.0 1029261
19:00−10sw489769 0.0 1031116
22:00−11sw379872 0.0 103392
5 december, sun
sun501:00−11ssw4898100 0.0 1033100
04:00−9ssw3896100 0.0 1032121
07:00−8s499677 0.0 1030156
10:00−9s499643 0.0 1029142
13:00−6ssw4109559 0.0 1028214
16:00−6ssw499379 0.0 1026177
19:00−8ssw499373 0.0 1025121
22:00−8ssw4991100 0.0 1024126
6 december, mon
mon601:00−6ssw4989100 0.0 1023157
04:00−5s3889100 0.0 1021144
07:00−5s4991100 0.0 1019159
10:00−4ssw51189100 0.0 1018247
13:00−3ssw498899 0.0 1017249
16:00−4ssw499285 0.0 1016187
19:00−5sw51092100 0.0 1017219
22:00−5wsw5109699 0.3 1017325